カタログに戻る

THOR ABLESTAR DEB

運用中LEO
NORAD 132·DEBRIS·🇺🇸 United States

打ち上げ Jun 29, 1961 から Cape Canaveral Space Force Station

Loading…

次のパス (今後24時間)

TLE

最新Source: Space-Track

元期: Sep 13, 2026, 23:58 UTC

1 00132U 61015S   26256.99888352 -.00000009  00000-0  51068-4 0  9996
2 00132  66.6586 112.3442 0069303 133.9003 226.7828 13.94783991316056

AllMySatでTHOR ABLESTAR DEBをリアルタイム追跡

Download on the App Store